QPF
0.00 0.00 0.00 0.00 0.01 0.01 0.01 0.00 0.00 0.00 0.00 0.00 0.00 0.00 0.00 0.00 0.02 0.04 0.02 0.00 0.00 0.00 0.00 0.00 0.00 0.00 0.00 0.01 0.01 0.01 0.03 0.06 0.09 0.08 0.06 0.08 0.10 0.13 0.13 0.09 0.09 0.12 0.11 0.11 0.09 0.09 0.11 0.11 0.10
0.00 0.00 0.00 0.00 0.02 0.02 0.01 0.00 0.00 0.00 0.00 0.00 0.00 0.00 0.00 0.00 0.00 0.00 0.00 0.00 0.00 0.00 0.00 0.00 0.00 0.00 0.00 0.01 0.01 0.02 0.02 0.03 0.04 0.08 0.09 0.10 0.11 0.13 0.14 0.11 0.09 0.10 0.12 0.15 0.11 0.09 0.09 0.09 0.09
0.00 0.00 0.00 0.00 0.03 0.02 0.00 0.00 0.00 0.00 0.00 0.00 0.00 0.00 0.00 0.00 0.00 0.00 0.00 0.00 0.00 0.00 0.00 0.00 0.00 0.00 0.01 0.01 0.01 0.02 0.03 0.03 0.03 0.04 0.06 0.09 0.11 0.13 0.15 0.13 0.10 0.11 0.10 0.10 0.12 0.09 0.07 0.06 0.07
0.00 0.00 0.00 0.00 0.01 0.00 0.00 0.00 0.00 0.00 0.00 0.00 0.00 0.00 0.00 0.00 0.00 0.00 0.00 0.00 0.00 0.00 0.00 0.00 0.00 0.00 0.01 0.01 0.01 0.01 0.02 0.03 0.03 0.03 0.05 0.05 0.08 0.11 0.16 0.19 0.14 0.11 0.07 0.07 0.11 0.08 0.07 0.05 0.05
0.00 0.00 0.00 0.00 0.01 0.00 0.00 0.00 0.00 0.00 0.00 0.00 0.00 0.00 0.01 0.00 0.00 0.00 0.00 0.00 0.00 0.00 0.00 0.00 0.01 0.01 0.01 0.02 0.01 0.01 0.01 0.02 0.03 0.03 0.04 0.03 0.03 0.05 0.10 0.14 0.14 0.11 0.07 0.07 0.08 0.08 0.06 0.05 0.05
0.00 0.00 0.01 0.01 0.01 0.00 0.00 0.00 0.00 0.00 0.00 0.00 0.00 0.00 0.01 0.00 0.00 0.01 0.00 0.00 0.00 0.01 0.01 0.00 0.00 0.01 0.01 0.01 0.01 0.01 0.01 0.02 0.02 0.03 0.03 0.02 0.03 0.04 0.06 0.11 0.14 0.12 0.09 0.11 0.12 0.09 0.06 0.06 0.06
0.00 0.01 0.01 0.01 0.01 0.00 0.00 0.00 0.00 0.00 0.00 0.00 0.00 0.00 0.01 0.01 0.00 0.01 0.00 0.00 0.01 0.01 0.01 0.01 0.00 0.01 0.01 0.01 0.01 0.01 0.01 0.01 0.01 0.02 0.03 0.03 0.04 0.05 0.06 0.09 0.13 0.10 0.08 0.13 0.17 0.10 0.07 0.05 0.06
0.00 0.00 0.00 0.00 0.00 0.01 0.00 0.00 0.00 0.00 0.00 0.00 0.00 0.01 0.01 0.00 0.00 0.00 0.00 0.00 0.01 0.01 0.01 0.01 0.03 0.02 0.01 0.01 0.00 0.01 0.01 0.01 0.01 0.02 0.03 0.04 0.05 0.07 0.09 0.11 0.13 0.09 0.09 0.11 0.16 0.13 0.08 0.05 0.05
0.00 0.00 0.01 0.01 0.00 0.00 0.00 0.00 0.00 0.00 0.00 0.00 0.01 0.01 0.00 0.00 0.00 0.00 0.00 0.02 0.03 0.02 0.01 0.02 0.03 0.04 0.01 0.01 0.01 0.01 0.01 0.01 0.02 0.02 0.02 0.04 0.08 0.10 0.12 0.12 0.10 0.09 0.09 0.12 0.13 0.10 0.08 0.09 0.08
0.00 0.00 0.00 0.00 0.00 0.00 0.00 0.00 0.00 0.00 0.00 0.02 0.04 0.02 0.00 0.00 0.00 0.00 0.00 0.02 0.04 0.04 0.02 0.01 0.03 0.03 0.02 0.01 0.01 0.02 0.01 0.02 0.02 0.03 0.04 0.07 0.11 0.13 0.11 0.10 0.10 0.12 0.11 0.12 0.10 0.08 0.07 0.08 0.11
0.00 0.00 0.00 0.00 0.00 0.00 0.00 0.00 0.00 0.00 0.00 0.02 0.03 0.01 0.00 0.00 0.00 0.01 0.01 0.02 0.02 0.02 0.01 0.02 0.03 0.02 0.02 0.01 0.01 0.02 0.03 0.04 0.05 0.05 0.05 0.07 0.10 0.10 0.11 0.12 0.13 0.15 0.15 0.12 0.09 0.07 0.07 0.08 0.10
0.00 0.00 0.00 0.00 0.00 0.00 0.00 0.00 0.00 0.00 0.00 0.00 0.00 0.01 0.00 0.00 0.01 0.02 0.03 0.03 0.03 0.02 0.01 0.02 0.01 0.02 0.02 0.02 0.02 0.02 0.03 0.04 0.05 0.04 0.04 0.06 0.08 0.10 0.11 0.15 0.17 0.18 0.19 0.16 0.12 0.11 0.12 0.10 0.07
0.00 0.00 0.00 0.00 0.00 0.00 0.00 0.00 0.00 0.00 0.00 0.00 0.00 0.00 0.00 0.01 0.02 0.03 0.04 0.04 0.03 0.02 0.01 0.01 0.01 0.01 0.02 0.04 0.03 0.02 0.04 0.04 0.05 0.05 0.04 0.06 0.07 0.09 0.11 0.14 0.21 0.19 0.17 0.16 0.13 0.11 0.10 0.07 0.06
0.00 0.00 0.00 0.00 0.00 0.00 0.00 0.00 0.00 0.00 0.00 0.00 0.00 0.00 0.00 0.01 0.01 0.03 0.04 0.03 0.03 0.02 0.02 0.02 0.01 0.01 0.02 0.02 0.02 0.02 0.03 0.04 0.04 0.05 0.05 0.06 0.08 0.11 0.14 0.14 0.21 0.22 0.18 0.15 0.12 0.10 0.08 0.08 0.07
0.00 0.00 0.00 0.00 0.00 0.00 0.00 0.01 0.02 0.00 0.00 0.00 0.01 0.00 0.01 0.01 0.01 0.02 0.03 0.04 0.04 0.04 0.03 0.02 0.01 0.01 0.01 0.02 0.02 0.02 0.03 0.03 0.03 0.05 0.06 0.06 0.09 0.12 0.14 0.13 0.14 0.17 0.18 0.17 0.15 0.13 0.13 0.10 0.08
0.00 0.01 0.01 0.00 0.00 0.00 0.00 0.02 0.02 0.00 0.00 0.01 0.01 0.01 0.02 0.02 0.01 0.00 0.01 0.04 0.06 0.06 0.05 0.02 0.01 0.01 0.01 0.01 0.02 0.02 0.02 0.03 0.04 0.05 0.06 0.06 0.09 0.13 0.15 0.12 0.11 0.10 0.13 0.15 0.16 0.16 0.16 0.14 0.11
0.00 0.00 0.01 0.00 0.00 0.00 0.00 0.01 0.01 0.01 0.01 0.01 0.01 0.01 0.01 0.01 0.00 0.00 0.01 0.02 0.05 0.06 0.06 0.05 0.03 0.02 0.01 0.01 0.02 0.03 0.03 0.03 0.04 0.05 0.06 0.06 0.06 0.11 0.11 0.08 0.09 0.08 0.08 0.11 0.14 0.15 0.13 0.13 0.11
0.00 0.00 0.00 0.00 0.00 0.00 0.00 0.00 0.01 0.01 0.00 0.00 0.00 0.00 0.00 0.00 0.01 0.01 0.01 0.02 0.04 0.09 0.11 0.09 0.06 0.03 0.02 0.03 0.03 0.03 0.03 0.03 0.04 0.05 0.06 0.05 0.08 0.11 0.07 0.05 0.06 0.07 0.09 0.13 0.12 0.12 0.10 0.11 0.10
0.00 0.00 0.00 0.00 0.00 0.00 0.00 0.00 0.00 0.00 0.00 0.00 0.00 0.00 0.01 0.01 0.01 0.01 0.01 0.01 0.02 0.07 0.12 0.11 0.06 0.04 0.03 0.03 0.02 0.02 0.03 0.04 0.03 0.03 0.03 0.05 0.06 0.05 0.05 0.04 0.05 0.06 0.07 0.09 0.11 0.11 0.11 0.11 0.12
0.00 0.00 0.00 0.00 0.00 0.00 0.00 0.00 0.00 0.00 0.00 0.00 0.00 0.00 0.02 0.03 0.03 0.02 0.01 0.01 0.02 0.03 0.05 0.08 0.07 0.04 0.02 0.02 0.02 0.03 0.04 0.04 0.04 0.04 0.05 0.02 0.02 0.04 0.04 0.04 0.05 0.06 0.06 0.07 0.09 0.09 0.10 0.10 0.11
0.00 0.00 0.00 0.00 0.01 0.00 0.00 0.00 0.00 0.01 0.01 0.01 0.01 0.01 0.03 0.03 0.03 0.04 0.02 0.02 0.02 0.02 0.03 0.04 0.04 0.03 0.02 0.03 0.03 0.03 0.03 0.02 0.03 0.03 0.04 0.02 0.02 0.03 0.04 0.04 0.04 0.05 0.05 0.07 0.06 0.07 0.07 0.08 0.10
0.00 0.00 0.00 0.00 0.01 0.00 0.00 0.02 0.01 0.01 0.02 0.02 0.02 0.03 0.05 0.04 0.04 0.04 0.02 0.01 0.01 0.01 0.02 0.03 0.03 0.03 0.02 0.03 0.03 0.04 0.05 0.04 0.04 0.05 0.04 0.04 0.02 0.02 0.03 0.03 0.03 0.05 0.06 0.07 0.07 0.09 0.08 0.08 0.08
0.00 0.00 0.00 0.00 0.00 0.01 0.00 0.01 0.02 0.02 0.02 0.02 0.02 0.02 0.04 0.04 0.04 0.03 0.02 0.01 0.00 0.01 0.01 0.02 0.03 0.03 0.03 0.03 0.03 0.04 0.05 0.04 0.04 0.05 0.05 0.05 0.04 0.02 0.02 0.03 0.04 0.03 0.05 0.05 0.05 0.06 0.07 0.07 0.08
0.00 0.00 0.00 0.00 0.01 0.01 0.00 0.00 0.01 0.03 0.03 0.02 0.02 0.02 0.05 0.05 0.05 0.03 0.01 0.00 0.00 0.00 0.01 0.01 0.01 0.02 0.02 0.03 0.04 0.04 0.05 0.05 0.05 0.05 0.05 0.05 0.05 0.04 0.02 0.01 0.03 0.03 0.05 0.05 0.06 0.06 0.08 0.08 0.08
0.00 0.00 0.01 0.02 0.02 0.01 0.01 0.01 0.01 0.03 0.02 0.01 0.02 0.03 0.04 0.06 0.05 0.03 0.01 0.01 0.01 0.01 0.01 0.01 0.02 0.03 0.03 0.03 0.03 0.04 0.05 0.06 0.06 0.05 0.05 0.05 0.05 0.05 0.04 0.03 0.03 0.04 0.05 0.05 0.06 0.07 0.08 0.08 0.09
0.00 0.00 0.01 0.02 0.03 0.03 0.03 0.02 0.03 0.03 0.02 0.01 0.01 0.01 0.01 0.03 0.04 0.02 0.01 0.02 0.02 0.02 0.02 0.02 0.03 0.03 0.03 0.03 0.03 0.04 0.05 0.05 0.06 0.06 0.05 0.05 0.05 0.04 0.04 0.04 0.03 0.04 0.04 0.04 0.06 0.07 0.08 0.09 0.09
0.00 0.00 0.00 0.01 0.02 0.03 0.03 0.03 0.04 0.01 0.01 0.01 0.01 0.00 0.01 0.01 0.02 0.03 0.02 0.02 0.02 0.02 0.02 0.03 0.03 0.03 0.03 0.04 0.04 0.04 0.05 0.05 0.05 0.05 0.05 0.05 0.04 0.03 0.03 0.03 0.03 0.04 0.04 0.05 0.06 0.07 0.07 0.07 0.08
0.00 0.00 0.00 0.01 0.03 0.02 0.02 0.04 0.08 0.04 0.02 0.02 0.01 0.00 0.00 0.00 0.01 0.02 0.02 0.01 0.01 0.01 0.01 0.02 0.02 0.03 0.04 0.03 0.03 0.04 0.05 0.05 0.05 0.05 0.05 0.04 0.03 0.03 0.03 0.03 0.02 0.02 0.02 0.03 0.05 0.05 0.05 0.06 0.06
0.00 0.00 0.00 0.01 0.02 0.02 0.03 0.04 0.05 0.03 0.02 0.01 0.00 0.00 0.00 0.00 0.01 0.01 0.02 0.02 0.01 0.01 0.01 0.02 0.03 0.03 0.03 0.04 0.04 0.04 0.05 0.04 0.05 0.05 0.05 0.04 0.03 0.03 0.02 0.02 0.03 0.03 0.02 0.03 0.03 0.03 0.03 0.05 0.05
0.00 0.00 0.00 0.01 0.01 0.01 0.02 0.04 0.03 0.02 0.02 0.02 0.01 0.00 0.01 0.00 0.00 0.01 0.01 0.01 0.00 0.01 0.01 0.01 0.02 0.03 0.03 0.03 0.04 0.03 0.04 0.04 0.04 0.04 0.05 0.05 0.04 0.04 0.03 0.02 0.02 0.02 0.02 0.03 0.03 0.03 0.04 0.04 0.04
MSLP
1005.45 1005.90 1006.42 1006.90 1007.21 1007.29 1007.13 1006.76 1006.28 1005.81 1005.45 1005.26 1005.24 1005.36 1005.53 1005.68 1005.75 1005.71 1005.62 1005.54 1005.58 1005.80 1006.24 1006.88 1007.66 1008.44 1009.12 1009.62 1009.90 1009.97 1009.92 1009.83 1009.81 1009.92 1010.19 1010.57 1011.01 1011.42 1011.73 1011.91 1011.96 1011.93 1011.88 1011.86 1011.91 1012.07 1012.31 1012.59 1012.90
1005.69 1006.23 1006.76 1007.17 1007.35 1007.26 1006.90 1006.36 1005.74 1005.16 1004.73 1004.50 1004.46 1004.57 1004.76 1004.94 1005.05 1005.10 1005.11 1005.16 1005.33 1005.68 1006.25 1006.98 1007.81 1008.62 1009.31 1009.80 1010.08 1010.16 1010.13 1010.08 1010.10 1010.24 1010.52 1010.89 1011.28 1011.64 1011.89 1012.01 1012.02 1011.96 1011.89 1011.88 1011.94 1012.10 1012.33 1012.60 1012.88
1006.04 1006.61 1007.12 1007.43 1007.46 1007.20 1006.68 1005.99 1005.26 1004.60 1004.12 1003.85 1003.80 1003.90 1004.08 1004.27 1004.41 1004.51 1004.60 1004.75 1005.04 1005.51 1006.17 1006.99 1007.87 1008.71 1009.42 1009.93 1010.22 1010.34 1010.36 1010.35 1010.42 1010.58 1010.85 1011.18 1011.52 1011.80 1011.98 1012.04 1012.01 1011.95 1011.89 1011.90 1012.00 1012.17 1012.41 1012.66 1012.90
1006.45 1007.02 1007.45 1007.65 1007.54 1007.13 1006.48 1005.69 1004.89 1004.19 1003.69 1003.42 1003.35 1003.44 1003.59 1003.76 1003.90 1004.02 1004.16 1004.38 1004.75 1005.30 1006.04 1006.92 1007.84 1008.71 1009.45 1009.99 1010.33 1010.51 1010.58 1010.64 1010.74 1010.91 1011.16 1011.44 1011.70 1011.90 1012.01 1012.02 1011.98 1011.92 1011.90 1011.96 1012.09 1012.29 1012.52 1012.75 1012.96
1006.88 1007.39 1007.73 1007.79 1007.55 1007.02 1006.29 1005.46 1004.65 1003.97 1003.49 1003.23 1003.16 1003.22 1003.34 1003.46 1003.57 1003.68 1003.82 1004.08 1004.49 1005.10 1005.88 1006.80 1007.75 1008.65 1009.42 1010.00 1010.39 1010.63 1010.78 1010.89 1011.02 1011.20 1011.42 1011.64 1011.83 1011.95 1011.99 1011.97 1011.92 1011.89 1011.91 1012.02 1012.19 1012.41 1012.64 1012.83 1012.98
1007.26 1007.68 1007.88 1007.81 1007.46 1006.86 1006.10 1005.28 1004.52 1003.90 1003.48 1003.25 1003.18 1003.21 1003.29 1003.36 1003.41 1003.48 1003.61 1003.86 1004.29 1004.92 1005.72 1006.65 1007.62 1008.53 1009.32 1009.94 1010.38 1010.68 1010.89 1011.05 1011.22 1011.39 1011.58 1011.74 1011.86 1011.92 1011.91 1011.87 1011.82 1011.82 1011.89 1012.03 1012.24 1012.47 1012.68 1012.84 1012.93
1007.53 1007.82 1007.88 1007.69 1007.25 1006.61 1005.87 1005.11 1004.44 1003.92 1003.58 1003.39 1003.34 1003.34 1003.36 1003.37 1003.36 1003.38 1003.48 1003.72 1004.15 1004.77 1005.57 1006.49 1007.45 1008.35 1009.14 1009.78 1010.26 1010.61 1010.87 1011.08 1011.27 1011.45 1011.61 1011.73 1011.80 1011.81 1011.77 1011.71 1011.68 1011.70 1011.80 1011.97 1012.19 1012.42 1012.61 1012.73 1012.78
1007.66 1007.81 1007.73 1007.42 1006.92 1006.28 1005.58 1004.92 1004.36 1003.95 1003.69 1003.56 1003.51 1003.49 1003.46 1003.41 1003.35 1003.33 1003.40 1003.62 1004.04 1004.64 1005.42 1006.31 1007.23 1008.10 1008.87 1009.51 1010.00 1010.38 1010.68 1010.93 1011.14 1011.33 1011.49 1011.60 1011.64 1011.63 1011.57 1011.51 1011.49 1011.53 1011.64 1011.83 1012.05 1012.26 1012.43 1012.52 1012.53
1007.65 1007.64 1007.43 1007.03 1006.49 1005.87 1005.24 1004.68 1004.23 1003.92 1003.74 1003.64 1003.60 1003.55 1003.49 1003.39 1003.30 1003.25 1003.31 1003.52 1003.92 1004.51 1005.25 1006.09 1006.95 1007.77 1008.50 1009.11 1009.60 1009.99 1010.31 1010.59 1010.84 1011.05 1011.22 1011.34 1011.39 1011.39 1011.34 1011.29 1011.28 1011.33 1011.45 1011.63 1011.84 1012.04 1012.19 1012.26 1012.25
1007.50 1007.36 1007.03 1006.56 1006.00 1005.41 1004.85 1004.39 1004.03 1003.80 1003.67 1003.60 1003.55 1003.48 1003.38 1003.26 1003.15 1003.10 1003.16 1003.38 1003.78 1004.34 1005.04 1005.82 1006.62 1007.37 1008.03 1008.60 1009.06 1009.45 1009.79 1010.09 1010.38 1010.63 1010.84 1011.00 1011.09 1011.12 1011.11 1011.09 1011.09 1011.15 1011.27 1011.44 1011.64 1011.82 1011.96 1012.03 1012.03
1007.27 1007.01 1006.59 1006.07 1005.50 1004.95 1004.46 1004.06 1003.78 1003.60 1003.49 1003.42 1003.34 1003.25 1003.13 1003.00 1002.90 1002.87 1002.96 1003.20 1003.60 1004.14 1004.80 1005.52 1006.24 1006.91 1007.51 1008.02 1008.45 1008.82 1009.17 1009.50 1009.82 1010.12 1010.40 1010.62 1010.77 1010.87 1010.91 1010.94 1010.97 1011.04 1011.16 1011.32 1011.50 1011.68 1011.82 1011.91 1011.95
1007.00 1006.64 1006.15 1005.60 1005.04 1004.53 1004.09 1003.75 1003.51 1003.34 1003.22 1003.12 1003.02 1002.90 1002.77 1002.64 1002.57 1002.57 1002.70 1002.97 1003.38 1003.92 1004.55 1005.21 1005.86 1006.46 1006.99 1007.44 1007.83 1008.19 1008.54 1008.88 1009.24 1009.60 1009.94 1010.24 1010.48 1010.65 1010.77 1010.86 1010.94 1011.03 1011.16 1011.31 1011.49 1011.66 1011.82 1011.94 1012.02
1006.72 1006.29 1005.76 1005.20 1004.66 1004.18 1003.79 1003.48 1003.24 1003.06 1002.91 1002.77 1002.63 1002.48 1002.34 1002.23 1002.19 1002.24 1002.42 1002.73 1003.16 1003.70 1004.30 1004.92 1005.51 1006.06 1006.54 1006.95 1007.31 1007.65 1007.99 1008.35 1008.73 1009.13 1009.53 1009.90 1010.22 1010.48 1010.69 1010.84 1010.98 1011.10 1011.24 1011.40 1011.58 1011.77 1011.94 1012.10 1012.22
1006.47 1005.99 1005.45 1004.90 1004.39 1003.94 1003.57 1003.27 1003.02 1002.80 1002.60 1002.40 1002.21 1002.04 1001.90 1001.81 1001.81 1001.92 1002.14 1002.49 1002.94 1003.48 1004.07 1004.67 1005.25 1005.77 1006.22 1006.61 1006.96 1007.28 1007.61 1007.97 1008.35 1008.77 1009.19 1009.61 1010.00 1010.34 1010.62 1010.85 1011.04 1011.20 1011.37 1011.54 1011.73 1011.93 1012.13 1012.31 1012.48
1006.26 1005.76 1005.22 1004.70 1004.23 1003.82 1003.46 1003.14 1002.86 1002.58 1002.32 1002.06 1001.82 1001.62 1001.48 1001.42 1001.45 1001.60 1001.87 1002.25 1002.73 1003.28 1003.88 1004.48 1005.06 1005.59 1006.05 1006.46 1006.80 1007.12 1007.44 1007.77 1008.13 1008.52 1008.95 1009.38 1009.80 1010.18 1010.53 1010.81 1011.06 1011.27 1011.46 1011.66 1011.86 1012.07 1012.28 1012.50 1012.69
1006.07 1005.58 1005.08 1004.60 1004.18 1003.79 1003.44 1003.10 1002.76 1002.41 1002.07 1001.75 1001.46 1001.24 1001.10 1001.05 1001.12 1001.31 1001.61 1002.01 1002.51 1003.08 1003.69 1004.32 1004.94 1005.51 1006.01 1006.45 1006.83 1007.15 1007.44 1007.74 1008.05 1008.39 1008.77 1009.18 1009.60 1010.00 1010.38 1010.71 1011.00 1011.25 1011.47 1011.68 1011.89 1012.11 1012.34 1012.57 1012.79
1005.91 1005.45 1005.01 1004.61 1004.24 1003.88 1003.52 1003.14 1002.73 1002.30 1001.87 1001.47 1001.14 1000.89 1000.75 1000.72 1000.81 1001.02 1001.34 1001.76 1002.27 1002.85 1003.49 1004.16 1004.83 1005.46 1006.04 1006.54 1006.96 1007.29 1007.57 1007.82 1008.07 1008.34 1008.65 1009.00 1009.38 1009.77 1010.16 1010.52 1010.84 1011.12 1011.37 1011.59 1011.81 1012.04 1012.28 1012.52 1012.75
1005.76 1005.39 1005.04 1004.72 1004.41 1004.07 1003.70 1003.26 1002.77 1002.24 1001.72 1001.25 1000.86 1000.58 1000.43 1000.41 1000.52 1000.74 1001.07 1001.49 1002.00 1002.59 1003.25 1003.96 1004.69 1005.40 1006.06 1006.63 1007.11 1007.47 1007.75 1007.95 1008.14 1008.32 1008.55 1008.83 1009.16 1009.52 1009.90 1010.27 1010.62 1010.92 1011.19 1011.42 1011.65 1011.88 1012.11 1012.35 1012.59
1005.65 1005.39 1005.16 1004.94 1004.69 1004.38 1003.98 1003.48 1002.90 1002.27 1001.65 1001.10 1000.66 1000.35 1000.19 1000.18 1000.29 1000.52 1000.83 1001.24 1001.74 1002.32 1002.98 1003.72 1004.49 1005.27 1006.00 1006.65 1007.18 1007.59 1007.87 1008.05 1008.18 1008.30 1008.45 1008.66 1008.94 1009.28 1009.65 1010.03 1010.39 1010.71 1010.99 1011.23 1011.46 1011.68 1011.90 1012.14 1012.39
1005.59 1005.47 1005.38 1005.27 1005.10 1004.82 1004.40 1003.83 1003.16 1002.43 1001.72 1001.09 1000.59 1000.26 1000.09 1000.08 1000.19 1000.41 1000.71 1001.08 1001.54 1002.09 1002.73 1003.46 1004.25 1005.06 1005.84 1006.55 1007.13 1007.57 1007.87 1008.04 1008.15 1008.23 1008.34 1008.51 1008.75 1009.07 1009.44 1009.83 1010.21 1010.55 1010.84 1011.09 1011.31 1011.52 1011.73 1011.96 1012.21
1005.59 1005.63 1005.70 1005.72 1005.63 1005.38 1004.95 1004.33 1003.59 1002.78 1001.99 1001.30 1000.77 1000.41 1000.24 1000.22 1000.33 1000.53 1000.79 1001.12 1001.52 1002.00 1002.57 1003.25 1004.01 1004.80 1005.60 1006.32 1006.93 1007.40 1007.72 1007.91 1008.02 1008.10 1008.20 1008.36 1008.61 1008.93 1009.32 1009.73 1010.12 1010.48 1010.78 1011.02 1011.23 1011.43 1011.63 1011.85 1012.10
1005.66 1005.87 1006.09 1006.24 1006.25 1006.05 1005.63 1005.00 1004.22 1003.37 1002.54 1001.82 1001.27 1000.91 1000.74 1000.72 1000.82 1000.99 1001.21 1001.47 1001.78 1002.16 1002.63 1003.20 1003.87 1004.59 1005.33 1006.03 1006.63 1007.11 1007.45 1007.66 1007.79 1007.90 1008.03 1008.22 1008.50 1008.85 1009.26 1009.70 1010.11 1010.48 1010.79 1011.03 1011.23 1011.41 1011.59 1011.80 1012.04
1005.81 1006.16 1006.52 1006.80 1006.91 1006.79 1006.42 1005.83 1005.06 1004.22 1003.41 1002.70 1002.16 1001.82 1001.66 1001.65 1001.73 1001.87 1002.04 1002.21 1002.41 1002.66 1002.99 1003.41 1003.93 1004.53 1005.16 1005.77 1006.32 1006.76 1007.10 1007.33 1007.50 1007.65 1007.83 1008.07 1008.39 1008.78 1009.23 1009.69 1010.13 1010.50 1010.81 1011.05 1011.23 1011.39 1011.56 1011.76 1012.00
1006.02 1006.48 1006.95 1007.33 1007.55 1007.54 1007.27 1006.77 1006.10 1005.34 1004.59 1003.94 1003.46 1003.15 1003.01 1003.00 1003.07 1003.18 1003.27 1003.36 1003.44 1003.54 1003.70 1003.94 1004.28 1004.69 1005.16 1005.64 1006.09 1006.47 1006.77 1007.00 1007.19 1007.38 1007.61 1007.89 1008.26 1008.69 1009.17 1009.65 1010.09 1010.47 1010.77 1011.00 1011.17 1011.31 1011.46 1011.65 1011.89
1006.28 1006.78 1007.31 1007.79 1008.12 1008.24 1008.12 1007.78 1007.26 1006.65 1006.03 1005.49 1005.09 1004.84 1004.73 1004.72 1004.77 1004.83 1004.86 1004.85 1004.80 1004.76 1004.75 1004.80 1004.93 1005.14 1005.42 1005.73 1006.03 1006.31 1006.54 1006.75 1006.93 1007.14 1007.39 1007.71 1008.10 1008.55 1009.03 1009.51 1009.95 1010.32 1010.61 1010.83 1010.99 1011.12 1011.26 1011.44 1011.68
1006.57 1007.04 1007.59 1008.13 1008.57 1008.85 1008.92 1008.78 1008.48 1008.07 1007.64 1007.24 1006.94 1006.75 1006.66 1006.65 1006.67 1006.68 1006.64 1006.54 1006.39 1006.22 1006.05 1005.92 1005.86 1005.87 1005.95 1006.07 1006.21 1006.36 1006.50 1006.63 1006.78 1006.97 1007.22 1007.53 1007.92 1008.36 1008.83 1009.29 1009.71 1010.06 1010.34 1010.54 1010.70 1010.83 1010.97 1011.15 1011.38
1006.89 1007.28 1007.80 1008.37 1008.91 1009.34 1009.62 1009.73 1009.68 1009.51 1009.28 1009.04 1008.84 1008.71 1008.63 1008.60 1008.58 1008.53 1008.42 1008.25 1008.02 1007.75 1007.47 1007.20 1006.98 1006.82 1006.71 1006.66 1006.64 1006.64 1006.67 1006.72 1006.80 1006.94 1007.15 1007.42 1007.77 1008.18 1008.60 1009.03 1009.42 1009.75 1010.01 1010.21 1010.36 1010.50 1010.65 1010.83 1011.06
1007.25 1007.52 1007.96 1008.54 1009.16 1009.75 1010.24 1010.59 1010.80 1010.86 1010.83 1010.74 1010.63 1010.52 1010.44 1010.37 1010.29 1010.18 1010.01 1009.79 1009.51 1009.19 1008.84 1008.49 1008.17 1007.88 1007.64 1007.44 1007.28 1007.16 1007.07 1007.02 1007.02 1007.09 1007.23 1007.45 1007.73 1008.07 1008.45 1008.82 1009.17 1009.47 1009.73 1009.93 1010.10 1010.25 1010.41 1010.61 1010.84
1007.68 1007.80 1008.16 1008.72 1009.39 1010.10 1010.78 1011.35 1011.78 1012.05 1012.18 1012.19 1012.14 1012.03 1011.91 1011.78 1011.63 1011.45 1011.24 1011.00 1010.70 1010.37 1010.01 1009.64 1009.27 1008.93 1008.60 1008.31 1008.06 1007.84 1007.66 1007.52 1007.45 1007.44 1007.51 1007.65 1007.87 1008.14 1008.45 1008.77 1009.08 1009.37 1009.62 1009.83 1010.02 1010.20 1010.38 1010.58 1010.81
1008.23 1008.21 1008.47 1008.99 1009.69 1010.49 1011.29 1012.03 1012.62 1013.03 1013.27 1013.35 1013.30 1013.17 1012.98 1012.76 1012.54 1012.30 1012.06 1011.80 1011.52 1011.22 1010.89 1010.55 1010.20 1009.84 1009.50 1009.17 1008.87 1008.59 1008.35 1008.16 1008.03 1007.96 1007.97 1008.05 1008.20 1008.41 1008.66 1008.94 1009.22 1009.49 1009.74 1009.97 1010.18 1010.38 1010.58 1010.78 1011.00
Thickness
5850 5852 5852 5847 5828 5820 5820 5838 5848 5843 5843 5851 5851 5844 5830 5819 5808 5794 5823 5833 5826 5816 5807 5800 5796 5793 5791 5788 5787 5785 5783 5782 5781 5780 5779 5778 5777 5776 5775 5774 5773 5772 5771 5770 5769 5768 5768 5768 5768
5855 5859 5853 5840 5818 5806 5820 5841 5841 5842 5849 5856 5852 5845 5832 5822 5827 5823 5826 5829 5826 5817 5808 5801 5795 5792 5789 5787 5785 5784 5782 5781 5780 5778 5777 5776 5775 5774 5773 5772 5771 5770 5769 5768 5767 5766 5766 5766 5765
5855 5860 5844 5834 5820 5816 5825 5843 5846 5852 5859 5854 5844 5841 5830 5821 5827 5826 5828 5831 5826 5816 5807 5798 5794 5791 5788 5786 5784 5782 5781 5780 5779 5777 5776 5775 5774 5773 5771 5771 5770 5768 5767 5766 5765 5764 5764 5763 5763
5855 5855 5845 5832 5822 5839 5848 5852 5855 5851 5853 5855 5845 5831 5829 5835 5832 5831 5833 5833 5824 5815 5806 5797 5793 5790 5787 5785 5783 5782 5780 5779 5777 5776 5775 5774 5773 5772 5770 5769 5768 5766 5765 5764 5763 5762 5762 5761 5761
5857 5844 5829 5825 5828 5848 5859 5862 5860 5848 5846 5848 5843 5824 5818 5833 5836 5834 5833 5831 5823 5815 5807 5798 5793 5790 5787 5785 5783 5781 5779 5778 5776 5775 5774 5773 5772 5770 5768 5767 5766 5765 5764 5763 5762 5761 5760 5760 5759
5846 5842 5817 5817 5831 5848 5861 5866 5861 5851 5847 5847 5840 5825 5819 5834 5833 5831 5832 5830 5825 5816 5807 5798 5793 5790 5787 5785 5782 5780 5779 5777 5775 5774 5773 5772 5770 5769 5767 5766 5765 5763 5762 5761 5760 5760 5759 5759 5758
5838 5831 5822 5828 5832 5842 5857 5867 5857 5849 5844 5846 5848 5825 5821 5829 5833 5834 5831 5830 5825 5818 5808 5800 5795 5790 5787 5784 5782 5780 5778 5776 5775 5773 5772 5771 5769 5768 5766 5765 5764 5762 5761 5760 5759 5759 5758 5758 5758
5854 5837 5828 5833 5836 5840 5861 5864 5861 5853 5846 5858 5854 5828 5817 5827 5835 5834 5831 5827 5823 5817 5810 5803 5799 5794 5789 5785 5782 5780 5778 5776 5774 5773 5771 5770 5769 5767 5766 5765 5763 5762 5761 5760 5759 5758 5758 5757 5757
5859 5827 5821 5832 5844 5848 5863 5857 5859 5866 5854 5852 5852 5843 5838 5838 5836 5830 5824 5820 5816 5814 5811 5806 5802 5797 5794 5789 5784 5781 5778 5776 5774 5772 5771 5770 5769 5768 5766 5765 5763 5762 5761 5760 5759 5758 5757 5756 5756
5847 5821 5830 5850 5860 5858 5859 5855 5855 5852 5842 5838 5838 5840 5840 5837 5831 5824 5818 5812 5808 5807 5809 5809 5804 5800 5797 5793 5787 5783 5781 5777 5775 5774 5772 5771 5770 5770 5768 5765 5763 5762 5761 5760 5758 5757 5756 5755 5756
5847 5836 5849 5859 5866 5864 5857 5855 5859 5846 5832 5835 5832 5832 5834 5831 5826 5822 5819 5816 5811 5810 5809 5809 5805 5802 5799 5795 5790 5787 5784 5780 5777 5776 5774 5772 5771 5770 5768 5766 5764 5762 5761 5760 5759 5757 5756 5757 5757
5846 5850 5857 5859 5864 5860 5854 5854 5851 5846 5842 5850 5847 5841 5834 5827 5825 5823 5820 5817 5814 5811 5809 5808 5806 5802 5799 5796 5792 5789 5786 5783 5779 5776 5774 5773 5771 5769 5768 5767 5766 5764 5763 5761 5760 5759 5758 5758 5758
5843 5848 5858 5861 5861 5859 5855 5850 5848 5846 5854 5855 5848 5841 5834 5829 5827 5827 5825 5820 5815 5810 5808 5807 5805 5801 5797 5794 5792 5790 5787 5783 5780 5778 5774 5773 5771 5768 5767 5766 5764 5764 5763 5761 5759 5758 5758 5758 5757
5845 5849 5854 5856 5856 5855 5847 5846 5845 5845 5855 5848 5842 5836 5834 5831 5828 5825 5821 5817 5814 5810 5806 5804 5803 5800 5796 5792 5790 5788 5786 5783 5781 5777 5774 5771 5769 5767 5766 5764 5763 5762 5761 5760 5759 5758 5757 5756 5756
5847 5837 5839 5847 5850 5851 5845 5829 5836 5847 5851 5842 5838 5836 5833 5831 5829 5824 5821 5817 5814 5810 5807 5804 5801 5798 5795 5792 5789 5788 5785 5783 5780 5776 5774 5771 5768 5767 5765 5763 5762 5761 5760 5759 5757 5756 5755 5754 5754
5832 5822 5815 5837 5847 5849 5832 5810 5834 5851 5844 5837 5837 5835 5830 5828 5828 5826 5823 5818 5814 5810 5806 5803 5802 5797 5793 5790 5788 5786 5784 5782 5779 5776 5773 5771 5768 5767 5765 5763 5761 5760 5759 5758 5756 5754 5752 5751 5750
5812 5804 5811 5830 5849 5845 5830 5816 5837 5850 5842 5834 5834 5831 5827 5825 5825 5825 5823 5819 5814 5809 5804 5801 5799 5795 5791 5788 5786 5784 5782 5779 5777 5775 5772 5769 5768 5766 5764 5762 5760 5760 5758 5756 5755 5753 5751 5748 5747
5802 5810 5817 5824 5840 5840 5827 5823 5835 5845 5841 5834 5833 5830 5825 5823 5823 5824 5822 5819 5814 5809 5804 5799 5796 5793 5790 5787 5784 5781 5779 5777 5776 5773 5770 5768 5766 5764 5762 5761 5759 5758 5756 5754 5753 5750 5749 5747 5746
5819 5816 5815 5829 5846 5834 5824 5822 5831 5840 5837 5831 5830 5829 5823 5821 5825 5824 5821 5817 5812 5806 5801 5797 5793 5791 5788 5784 5780 5776 5774 5774 5773 5772 5769 5767 5765 5763 5761 5760 5757 5756 5754 5752 5751 5748 5746 5745 5745
5815 5809 5813 5827 5842 5833 5821 5821 5832 5837 5834 5833 5831 5828 5824 5819 5817 5817 5816 5814 5807 5802 5799 5796 5792 5789 5787 5783 5781 5778 5776 5774 5773 5771 5768 5766 5764 5762 5761 5757 5756 5754 5752 5750 5749 5747 5743 5743 5744
5806 5806 5811 5816 5827 5830 5818 5810 5821 5832 5837 5836 5833 5831 5827 5820 5813 5811 5811 5809 5805 5801 5798 5796 5793 5789 5786 5784 5780 5778 5775 5773 5770 5767 5765 5764 5763 5760 5758 5757 5754 5752 5750 5747 5746 5745 5742 5739 5741
5796 5816 5817 5815 5806 5802 5809 5787 5811 5822 5822 5825 5826 5825 5824 5821 5815 5811 5809 5806 5804 5802 5800 5796 5792 5788 5785 5783 5779 5774 5769 5766 5766 5766 5764 5763 5761 5759 5757 5755 5753 5750 5748 5746 5744 5744 5742 5739 5736
5805 5821 5816 5811 5802 5796 5803 5791 5800 5817 5808 5813 5817 5818 5819 5817 5813 5810 5808 5806 5805 5803 5799 5795 5790 5786 5783 5781 5778 5773 5770 5768 5766 5765 5762 5760 5759 5758 5756 5754 5751 5749 5746 5745 5743 5742 5741 5739 5736
5812 5809 5806 5804 5796 5773 5791 5787 5786 5803 5805 5807 5812 5813 5813 5813 5811 5808 5807 5805 5802 5801 5798 5793 5787 5783 5781 5778 5776 5772 5769 5766 5763 5760 5757 5756 5756 5755 5754 5752 5749 5747 5745 5743 5741 5740 5739 5737 5736
5800 5782 5764 5761 5761 5765 5794 5787 5785 5805 5813 5809 5807 5809 5809 5808 5806 5803 5800 5797 5797 5795 5792 5789 5784 5779 5778 5776 5773 5770 5767 5765 5761 5758 5756 5754 5752 5750 5749 5749 5747 5745 5743 5742 5740 5738 5736 5735 5733
5789 5782 5756 5743 5749 5764 5782 5776 5786 5809 5812 5810 5808 5806 5804 5803 5801 5797 5795 5793 5793 5791 5788 5785 5780 5776 5774 5772 5769 5767 5765 5762 5760 5757 5755 5752 5751 5749 5748 5746 5744 5742 5741 5740 5737 5736 5734 5732 5730
5778 5780 5791 5773 5765 5756 5767 5773 5786 5801 5800 5800 5798 5797 5796 5793 5793 5790 5789 5789 5788 5785 5783 5781 5777 5773 5771 5769 5766 5763 5761 5758 5757 5755 5753 5751 5748 5747 5745 5743 5741 5739 5737 5736 5734 5732 5731 5729 5728
5789 5785 5776 5763 5745 5740 5753 5760 5759 5771 5781 5786 5787 5787 5788 5786 5786 5784 5782 5782 5783 5781 5778 5777 5773 5769 5766 5764 5761 5759 5756 5755 5753 5750 5748 5747 5745 5743 5741 5739 5736 5735 5733 5732 5730 5729 5728 5726 5724
5775 5773 5768 5763 5761 5743 5735 5745 5777 5774 5778 5780 5782 5784 5784 5782 5781 5779 5777 5774 5774 5775 5773 5770 5767 5763 5760 5759 5756 5754 5751 5750 5748 5745 5744 5742 5740 5738 5736 5734 5732 5730 5728 5727 5725 5724 5724 5721 5720
5777 5770 5763 5743 5744 5752 5742 5742 5777 5776 5777 5777 5776 5777 5778 5777 5776 5774 5772 5770 5768 5767 5766 5762 5760 5758 5755 5753 5751 5749 5747 5745 5742 5740 5738 5737 5735 5733 5732 5730 5727 5725 5724 5723 5721 5719 5718 5716 5715